Location: Anciles
(42.5833°N, 0.5167°E)
Time: 19:02:22
(UTC+00:00)

CORIOLIS - Pass Details

Date: 10 December 2019
Orbit: 818 x 839 km, 98.7° (Epoch: 18 January)

Event Time Altitude Azimuth Distance (km) Brightness Sun altitude
Rises 17:36:09 0° 168° (SSE) 3,375 7.4 -12.7°
Reaches altitude 10° 17:38:30 10° 169° (S) 2,446 6.7 -13.2°
Maximum altitude 17:43:56 80° 257° (WSW) 858 4.3 -14.1°
Drops below altitude 10° 17:49:25 10° 344° (NNW) 2,463 6.6 -15.1°
Sets 17:51:48 0° 346° (NNW) 3,400 7.3 -15.5°
